Hollywood, FL

11:37 PM EST on February 26, 2017 (GMT -0500)
North Perry

Weather History for KHWO - January, 2013

Change the Weather History Date:

Thursday, January 31, 2013

  Actual Average (KFLL) Record (KFLL)
Temperature  
Mean Temperature 68 °F -  
Max Temperature 73 °F 76 °F 86 °F (1991)
Min Temperature 60 °F 57 °F 32 °F (1966)
Cooling Degree Days 3    
Growing Degree Days 18 (Base 50)    
Moisture  
Dew Point 59 °F    
Average Humidity 76    
Maximum Humidity 94    
Minimum Humidity 46    
Precipitation  
Precipitation 0.00 in - - ()
Sea Level Pressure  
Sea Level Pressure 30.10 in    
Wind  
Wind Speed 9 mph (NW)    
Max Wind Speed 18 mph    
Max Gust Speed 30 mph    
Visibility 10 miles    
Events Rain    
Averages and records for this station are not official NWS values.
T = Trace of Precipitation, MM = Missing Value Source: NWS Daily Summary

Daily Weather History Graph

Daily Weather History Graph

Search for Another Location

Airport or City:

Trip Planner

Search our weather history database for the weather conditions in past years. The results will help you decide how hot, cold, wet, or windy it might be!

Date:

Astronomy

Jan. 31, 2013 Rise Set
Actual Time 7:05 AM EST 6:03 PM EST
Civil Twilight 6:41 AM EST 6:27 PM EST
Nautical Twilight 6:13 AM EST 6:55 PM EST
Astronomical Twilight 5:46 AM EST 7:22 PM EST
Moon 10:28 PM EST (1/31) 9:36 AM EST (1/31)
Length of Visible Light 11h 46m
Length of Day
10h 58m
Waning Gibbous, 80% of the Moon is Illuminated
Jan 31
Waning Gibbous
Feb 3
Last Quarter
Feb 10
New
Feb 17
First Quarter
Feb 25
Full

Hourly Weather History & Observations

Time (EST) Temp. Dew Point Humidity Pressure Visibility Wind Dir Wind Speed Gust Speed Precip Events Conditions
12:53 AM 71.1 °F 68.0 °F 90% 30.02 in 10.0 mi South 5.8 mph - N/A   Clear
1:53 AM 72.0 °F 68.0 °F 87% 30.01 in 10.0 mi South 5.8 mph - N/A   Clear
2:53 AM 72.0 °F 69.1 °F 91% 30.00 in 10.0 mi South 5.8 mph - N/A   Clear
3:53 AM 71.1 °F 69.1 °F 93% 29.99 in 10.0 mi South 4.6 mph - N/A   Clear
4:53 AM 72.0 °F 69.1 °F 91% 29.99 in 10.0 mi South 4.6 mph - N/A   Clear
6:53 AM 71.1 °F 69.1 °F 93% 30.01 in 10.0 mi South 5.8 mph - N/A   Clear
7:53 AM 73.0 °F 71.1 °F 93% 30.03 in 10.0 mi South 5.8 mph - N/A   Scattered Clouds
8:53 AM 66.9 °F 64.0 °F 90% 30.10 in 10.0 mi NW 18.4 mph 29.9 mph 0.00 in Rain Light Rain
8:58 AM 66.2 °F 62.6 °F 88% 30.11 in 10.0 mi NW 18.4 mph - 0.00 in Rain Light Rain
9:09 AM 64.4 °F 62.6 °F 94% 30.12 in 10.0 mi NW 12.7 mph - 0.00 in Rain Light Rain
9:27 AM 64.4 °F 62.6 °F 94% 30.12 in 10.0 mi NNW 16.1 mph 21.9 mph 0.00 in Rain Light Rain
9:45 AM 64.4 °F 62.6 °F 94% 30.12 in 10.0 mi NNW 11.5 mph - 0.00 in   Mostly Cloudy
9:53 AM 66.9 °F 62.1 °F 84% 30.12 in 10.0 mi NW 17.3 mph 20.7 mph 0.00 in   Mostly Cloudy
10:25 AM 66.2 °F 60.8 °F 83% 30.13 in 10.0 mi NNW 17.3 mph - N/A   Overcast
10:53 AM 66.0 °F 59.0 °F 78% 30.14 in 10.0 mi NNW 13.8 mph - N/A   Overcast
11:24 AM 68.0 °F 59.0 °F 73% 30.14 in 10.0 mi NNW 12.7 mph - N/A   Overcast
11:37 AM 69.8 °F 59.0 °F 68% 30.13 in 10.0 mi NNW 15.0 mph - N/A   Overcast
11:48 AM 69.8 °F 59.0 °F 68% 30.13 in 10.0 mi NW 13.8 mph - N/A   Overcast
11:53 AM 69.1 °F 59.0 °F 70% 30.13 in 10.0 mi NNW 12.7 mph - N/A   Overcast
12:23 PM 69.8 °F 60.8 °F 73% 30.11 in 10.0 mi North 10.4 mph - N/A   Overcast
12:53 PM 71.1 °F 59.0 °F 66% 30.11 in 10.0 mi NNW 15.0 mph 18.4 mph N/A   Mostly Cloudy
1:53 PM 70.0 °F 57.9 °F 65% 30.09 in 10.0 mi NNW 12.7 mph - N/A   Overcast
2:53 PM 69.1 °F 55.0 °F 61% 30.08 in 10.0 mi NNW 9.2 mph - N/A   Overcast
3:53 PM 64.9 °F 55.0 °F 70% 30.11 in 10.0 mi NW 13.8 mph - N/A   Overcast
4:53 PM 66.0 °F 54.0 °F 65% 30.12 in 10.0 mi NNW 10.4 mph - N/A   Mostly Cloudy
5:53 PM 66.0 °F 51.1 °F 59% 30.13 in 10.0 mi North 8.1 mph - N/A   Mostly Cloudy
6:53 PM 66.0 °F 53.1 °F 63% 30.14 in 10.0 mi North 5.8 mph - N/A   Mostly Cloudy
7:53 PM 64.9 °F 53.1 °F 65% 30.16 in 10.0 mi NE 5.8 mph - N/A   Partly Cloudy
8:53 PM 64.0 °F 52.0 °F 65% 30.17 in 10.0 mi Calm Calm - N/A   Partly Cloudy
9:53 PM 64.0 °F 51.1 °F 63% 30.19 in 10.0 mi NNW 6.9 mph - N/A   Clear
10:53 PM 63.0 °F 42.1 °F 46% 30.20 in 10.0 mi North 13.8 mph - N/A   Clear
11:53 PM 60.1 °F 39.9 °F 47% 30.19 in 10.0 mi North 8.1 mph - N/A   Clear